Погода в Рябове

Россия / Санкт-Петербург и Ленинградская область     59°25′12″N   31°07′45″E
темп.,
°C
ветер,
м/с
пор.,
м/с
влажн.,
%
обл.,
%
осадки,
мм/ч
давл.,
гПа
погр.,
м
3 марта, ср
ср300:00−1зсз411907 0.1 1017423
03:00−2зсз411923 0.1 1018447
06:00−2зсз4119437 0.0 1015377
09:00−1з5118860 0.0 1015610
12:00+1з5107871 0.0 1013761
15:00+3з5126986 0.0 10111272
18:00+1з61297100 0.4 1007898
21:00+2зсз51297100 1.6 1004846
4 марта, чт
чт400:000сз61196100 3.2 1001990
03:00−2зсз4118569 3.3 1003663
06:00−4зсз410840 0.0 1003509
09:00−4сз38880 0.0 1003420
12:00−2сз257831 0.0 1003621
15:00−2сз357962 0.1 1003767
18:00−4с3693100 1.0 1003438
21:00−5сз4890100 1.8 1005814
5 марта, пт
пт500:00−7сз388791 0.1 1005478
03:00−7сз378991 0.1 1007625
06:00−8сз3791100 0.1 1007602
09:00−8сз378899 0.3 1009560
12:00−7сз3580100 0.1 1010737
15:00−6ссз3577100 0.2 1013865
18:00−8с367988 0.1 1013556
21:00−10ссз128762 0.1 101670
6 марта, сб
сб600:00−9з239083 0.0 1017122
03:00−10зсз259566 0.0 1017140
06:00−10з259756 0.0 1016187
09:00−9з279259 0.0 1016298
12:00−5зюз36755 0.0 1014723
15:00−3юз586849 0.0 10111158
18:00−4ююз61391100 0.3 10051123
21:00−3юз71592100 1.8 9981249
7 марта, вс
вс700:00−2зюз71692100 1.0 9921264
03:00−2зсз41187100 2.5 990831
06:00−9зсз6176168 0.3 9911713
09:00−8зюз4147151 0.3 9912272
12:00−8зсз61273100 0.1 9891488
15:00−7з3690100 1.1 990576
18:00−8с498183 1.1 994753
21:00−10ссз3119073 1.1 999548